,,PA_Meas_PMT16A,,PR_Meas_QMR101_102,,RH_Meas_QMH101,,SR_Meas_QMS101,,TA_Meas_QMH101,,GenWind,,GenWind,
time,status,PA,status,PR,status,RH,status,SR,status,TA,status,DirAvg,status,SpdAvg,
2011-02-23, 00:00:04,VALID,917.913,VALID,0,VALID,97.2748,VALID,0,VALID,18.2601,VALID,104,VALID,0,
2011-02-23, 00:01:04,VALID,917.922,VALID,0,VALID,97.2977,VALID,0,VALID,18.2211,VALID,105,VALID,0.0757812,
2011-02-23, 00:02:04,VALID,917.91,VALID,0,VALID,97.29,VALID,0,VALID,18.2406,VALID,104,VALID,0.158594,
2011-02-23, 00:03:04,VALID,917.927,VALID,0,VALID,97.3129,VALID,0,VALID,18.2211,VALID,105,VALID,0.311328,
2011-02-23, 00:04:04,VALID,917.896,VALID,0,VALID,97.2977,VALID,0,VALID,18.2211,VALID,105,VALID,0.613672,
2011-02-23, 00:05:04,VALID,917.891,VALID,0,VALID,97.3205,VALID,0,VALID,18.2796,VALID,105,VALID,0.730078,
2011-02-23, 00:06:04,VALID,917.873,VALID,0,VALID,97.3281,VALID,0,VALID,18.338,VALID,105,VALID,0.728906,
2011-02-23, 00:07:04,VALID,917.843,VALID,0,VALID,97.3358,VALID,0,VALID,18.3185,VALID,104,VALID,0.832422,
2011-02-23, 00:08:04,VALID,917.855,VALID,0,VALID,97.3205,VALID,0,VALID,18.3185,VALID,105,VALID,0.84375,
2011-02-23, 00:09:04,VALID,917.843,VALID,0,VALID,97.3053,VALID,0,VALID,18.2796,VALID,104,VALID,0.592969,
2011-02-23, 00:10:04,VALID,917.893,VALID,0,VALID,97.29,VALID,0,VALID,18.2211,VALID,104,VALID,0.363672,
2011-02-23, 00:11:04,VALID,917.906,VALID,0,VALID,97.2214,VALID,0,VALID,18.1417,VALID,105,VALID,0.189063,
2011-02-23, 00:12:04,VALID,917.913,VALID,0,VALID,97.0842,VALID,0,VALID,18.0262,VALID,104,VALID,0.497266,
2011-02-23, 00:13:04,VALID,917.922,VALID,0,VALID,97.2214,VALID,0,VALID,18.0651,VALID,105,VALID,0.536328,
2011-02-23, 00:14:04,VALID,917.914,VALID,0,VALID,97.3205,VALID,0,VALID,18.1222,VALID,105,VALID,0.415234,
2011-02-23, 00:15:04,VALID,917.942,VALID,0,VALID,97.3281,VALID,0,VALID,18.2211,VALID,104,VALID,0.570703,
2011-02-23, 00:16:05,VALID,917.909,VALID,0,VALID,97.3281,VALID,0,VALID,18.2601,VALID,105,VALID,0.703516,
2011-02-23, 00:17:05,VALID,917.893,VALID,0,VALID,97.3434,VALID,0,VALID,18.2796,VALID,105,VALID,0.621094,
2011-02-23, 00:18:05,VALID,917.898,VALID,0,VALID,97.3205,VALID,0,VALID,18.2406,VALID,105,VALID,0.498828,
2011-02-23, 00:19:05,VALID,917.889,VALID,0,VALID,97.3053,VALID,0,VALID,18.2211,VALID,105,VALID,0.694922,
2011-02-23, 00:20:05,VALID,917.882,VALID,0,VALID,97.2977,VALID,0,VALID,18.2225,VALID,105,VALID,0.473437,
2011-02-23, 00:21:05,VALID,917.815,VALID,0,VALID,97.2977,VALID,0,VALID,18.1821,VALID,105,VALID,0.733203,
2011-02-23, 00:22:05,VALID,917.797,VALID,0,VALID,97.2443,VALID,0,VALID,18.1626,VALID,105,VALID,1.04219,
2011-02-23, 00:23:05,VALID,917.744,VALID,0,VALID,97.3129,VALID,0,VALID,18.2211,VALID,105,VALID,0.857422,
2011-02-23, 00:24:05,VALID,917.74,VALID,0,VALID,97.3129,VALID,0,VALID,18.2406,VALID,105,VALID,0.985156,
2011-02-23, 00:25:05,VALID,917.748,VALID,0,VALID,97.2977,VALID,0,VALID,18.2406,VALID,104,VALID,1.00586,
2011-02-23, 00:26:05,VALID,917.769,VALID,0,VALID,97.2824,VALID,0,VALID,18.2016,VALID,105,VALID,0.636328,
2011-02-23, 00:27:05,VALID,917.759,VALID,0,VALID,97.3053,VALID,0,VALID,18.2016,VALID,105,VALID,0.839844,
2011-02-23, 00:28:05,VALID,917.715,VALID,0,VALID,97.2977,VALID,0,VALID,18.2406,VALID,105,VALID,0.873828,
2011-02-23, 00:29:05,VALID,917.683,VALID,0,VALID,97.29,VALID,0,VALID,18.2406,VALID,105,VALID,0.900781,
2011-02-23, 00:30:05,VALID,917.648,VALID,0,VALID,97.2595,VALID,0,VALID,18.2016,VALID,119,VALID,0.953516,
2011-02-23, 00:31:05,VALID,917.613,VALID,0,VALID,97.229,VALID,0,VALID,18.1821,VALID,119,VALID,1.16719,
2011-02-23, 00:32:05,VALID,917.529,VALID,0,VALID,97.29,VALID,0,VALID,18.2016,VALID,119,VALID,0.946484,
2011-02-23, 00:33:05,VALID,917.532,VALID,0,VALID,97.2443,VALID,0,VALID,18.1626,VALID,119,VALID,1.17266,
2011-02-23, 00:34:05,VALID,917.442,VALID,0,VALID,97.2672,VALID,0,VALID,18.1835,VALID,119,VALID,1.04492,
2011-02-23, 00:35:05,VALID,917.431,VALID,0,VALID,97.2672,VALID,0,VALID,18.1626,VALID,119,VALID,0.921875,
2011-02-23, 00:36:05,VALID,917.411,VALID,0,VALID,97.3129,VALID,0.107441,VALID,18.1626,VALID,119,VALID,1.2875,
2011-02-23, 00:37:05,VALID,917.383,VALID,0,VALID,97.3129,VALID,0,VALID,18.1626,VALID,119,VALID,1.28437,
2011-02-23, 00:38:05,VALID,917.329,VALID,0,VALID,97.2977,VALID,0,VALID,18.1626,VALID,119,VALID,0.976563,
2011-02-23, 00:39:05,VALID,917.32,VALID,0,VALID,97.2595,VALID,0,VALID,18.1431,VALID,119,VALID,1.28672,
2011-02-23, 00:40:05,VALID,917.313,VALID,0,VALID,97.2977,VALID,0,VALID,18.1431,VALID,119,VALID,1.14336,
2011-02-23, 00:41:05,VALID,917.304,VALID,0,VALID,97.3129,VALID,0,VALID,18.1626,VALID,143,VALID,0.975781,
2011-02-23, 00:42:05,VALID,917.3,VALID,0,VALID,97.3053,VALID,0,VALID,18.1431,VALID,135,VALID,0.663672,
2011-02-23, 00:43:05,VALID,917.265,VALID,0,VALID,97.3053,VALID,0,VALID,18.1236,VALID,135,VALID,0.676953,
2011-02-23, 00:44:05,VALID,917.265,VALID,0,VALID,97.3129,VALID,0,VALID,18.1626,VALID,150,VALID,0.780078,
2011-02-23, 00:45:05,VALID,917.202,VALID,0,VALID,97.3205,VALID,0,VALID,18.1626,VALID,157,VALID,0.703906,
2011-02-23, 00:46:05,VALID,917.162,VALID,0,VALID,97.3434,VALID,0,VALID,18.1821,VALID,183,VALID,0.467187,
2011-02-23, 00:47:05,VALID,917.116,VALID,0,VALID,97.3358,VALID,0,VALID,18.1612,VALID,171,VALID,0.619531,
2011-02-23, 00:48:05,VALID,917.107,VALID,0,VALID,97.3205,VALID,0,VALID,18.1626,VALID,123,VALID,0.775781,
2011-02-23, 00:49:05,VALID,917.065,VALID,0,VALID,97.3434,VALID,0,VALID,18.1821,VALID,147,VALID,1.14805,
2011-02-23, 00:50:05,VALID,917.05,VALID,0,VALID,97.3281,VALID,0,VALID,18.2016,VALID,141,VALID,1.40391,
2011-02-23, 00:51:05,VALID,917.051,VALID,0,VALID,97.3586,VALID,0,VALID,18.2601,VALID,144,VALID,0.930078,
2011-02-23, 00:52:05,VALID,917.05,VALID,0,VALID,97.3586,VALID,0,VALID,18.3185,VALID,150,VALID,2.23047,
2011-02-23, 00:53:05,VALID,917.072,VALID,0,VALID,97.3434,VALID,0,VALID,18.3575,VALID,158,VALID,1.04297,
2011-02-23, 00:54:05,VALID,917.076,VALID,0,VALID,97.3663,VALID,0,VALID,18.338,VALID,157,VALID,1.58867,
2011-02-23, 00:55:05,VALID,917.077,VALID,0,VALID,97.3739,VALID,0,VALID,18.3185,VALID,131,VALID,1.41719,
2011-02-23, 00:56:05,VALID,917.03,VALID,0,VALID,97.3586,VALID,0,VALID,18.3185,VALID,134,VALID,0.788281,
2011-02-23, 00:57:05,VALID,917.04,VALID,0,VALID,97.351,VALID,0,VALID,18.338,VALID,104,VALID,1.72969,
2011-02-23, 00:58:05,VALID,917.054,VALID,0,VALID,97.3815,VALID,0,VALID,18.3575,VALID,101,VALID,1.37734,
2011-02-23, 00:59:05,VALID,917.065,VALID,0,VALID,97.3739,VALID,0,VALID,18.3575,VALID,132,VALID,1.39141,
2011-02-23, 01:00:05,VALID,917.082,VALID,0,VALID,97.3815,VALID,0,VALID,18.338,VALID,117,VALID,1.20391,
2011-02-23, 01:01:05,VALID,917.048,VALID,0,VALID,97.3739,VALID,0,VALID,18.3185,VALID,114,VALID,0.780469,
2011-02-23, 01:02:05,VALID,917.063,VALID,0,VALID,97.3739,VALID,0,VALID,18.338,VALID,121,VALID,1.41367,
2011-02-23, 01:03:05,VALID,917.006,VALID,0,VALID,97.3663,VALID,0,VALID,18.3575,VALID,118,VALID,1.20898,
2011-02-23, 01:04:05,VALID,916.942,VALID,0,VALID,97.3739,VALID,0,VALID,18.3575,VALID,118,VALID,1.29453,
2011-02-23, 01:05:05,VALID,916.9,VALID,0,VALID,97.3739,VALID,0,VALID,18.338,VALID,118,VALID,0.889063,
2011-02-23, 01:06:05,VALID,916.87,VALID,0,VALID,97.3891,VALID,0,VALID,18.377,VALID,118,VALID,1.04648,
2011-02-23, 01:07:05,VALID,916.833,VALID,0,VALID,97.3663,VALID,0,VALID,18.3185,VALID,118,VALID,1.01719,
2011-02-23, 01:08:05,VALID,916.853,VALID,0,VALID,97.351,VALID,0,VALID,18.338,VALID,118,VALID,1.18672,
2011-02-23, 01:09:05,VALID,916.818,VALID,0,VALID,97.3586,VALID,0,VALID,18.3185,VALID,118,VALID,1.38164,
2011-02-23, 01:10:05,VALID,916.805,VALID,0,VALID,97.3586,VALID,0,VALID,18.338,VALID,118,VALID,0.882422,
2011-02-23, 01:11:05,VALID,916.803,VALID,0,VALID,97.351,VALID,0,VALID,18.3561,VALID,118,VALID,1.01094,
2011-02-23, 01:12:05,VALID,916.836,VALID,0,VALID,97.351,VALID,0,VALID,18.338,VALID,118,VALID,0.708984,
2011-02-23, 01:13:05,VALID,916.841,VALID,0,VALID,97.351,VALID,0,VALID,18.3185,VALID,118,VALID,1.06367,
2011-02-23, 01:14:05,VALID,916.81,VALID,0,VALID,97.351,VALID,0,VALID,18.3185,VALID,118,VALID,0.936719,
2011-02-23, 01:15:05,VALID,916.796,VALID,0,VALID,97.351,VALID,0,VALID,18.3199,VALID,118,VALID,0.469531,
2011-02-23, 01:16:05,VALID,916.78,VALID,0,VALID,97.3281,VALID,0,VALID,18.299,VALID,118,VALID,0.508984,
2011-02-23, 01:17:05,VALID,916.745,VALID,0,VALID,97.2977,VALID,0,VALID,18.2406,VALID,117,VALID,0.7125,
2011-02-23, 01:18:05,VALID,916.741,VALID,0,VALID,97.3053,VALID,0,VALID,18.2016,VALID,118,VALID,0.655859,
2011-02-23, 01:19:05,VALID,916.703,VALID,0,VALID,97.2977,VALID,0,VALID,18.1821,VALID,118,VALID,0.544922,
2011-02-23, 01:20:05,VALID,916.68,VALID,0,VALID,97.3129,VALID,0,VALID,18.1626,VALID,118,VALID,0.590234,
2011-02-23, 01:21:05,VALID,916.698,VALID,0,VALID,97.3281,VALID,0,VALID,18.1821,VALID,118,VALID,0.567578,
2011-02-23, 01:22:05,VALID,916.697,VALID,0,VALID,97.3205,VALID,0,VALID,18.1821,VALID,118,VALID,0.14375,
2011-02-23, 01:23:05,VALID,916.711,VALID,0,VALID,97.3358,VALID,0,VALID,18.1626,VALID,117,VALID,0.0914062,
2011-02-23, 01:24:05,VALID,916.732,VALID,0,VALID,97.3053,VALID,0,VALID,18.1821,VALID,118,VALID,0.433203,
2011-02-23, 01:25:05,VALID,916.727,VALID,0,VALID,97.3434,VALID,0,VALID,18.2016,VALID,118,VALID,0.519922,
2011-02-23, 01:26:05,VALID,916.708,VALID,0,VALID,97.3205,VALID,0,VALID,18.2211,VALID,118,VALID,0,
2011-02-23, 01:27:05,VALID,916.705,VALID,0,VALID,97.3281,VALID,0,VALID,18.2211,VALID,117,VALID,0,
2011-02-23, 01:28:05,VALID,916.702,VALID,0,VALID,97.2977,VALID,0,VALID,18.1821,VALID,117,VALID,0,
2011-02-23, 01:29:05,VALID,916.709,VALID,0,VALID,97.0537,VALID,0,VALID,18.0262,VALID,118,VALID,0.595312,
2011-02-23, 01:30:05,VALID,916.692,VALID,0,VALID,97.0918,VALID,0,VALID,17.9287,VALID,118,VALID,0.290234,
2011-02-23, 01:31:05,VALID,916.731,VALID,0,VALID,97.2138,VALID,0,VALID,17.9482,VALID,118,VALID,0.421094,
2011-02-23, 01:32:05,VALID,916.738,VALID,0,VALID,97.2748,VALID,0,VALID,17.9691,VALID,118,VALID,0.553906,
2011-02-23, 01:33:05,VALID,916.756,VALID,0,VALID,97.3205,VALID,0,VALID,17.9886,VALID,93,VALID,0.758984,
2011-02-23, 01:34:05,VALID,916.756,VALID,0,VALID,97.3053,VALID,0,VALID,17.9677,VALID,18,VALID,0.751562,
2011-02-23, 01:35:05,VALID,916.807,VALID,0,VALID,97.2367,VALID,0,VALID,17.9092,VALID,18,VALID,1.05039,
2011-02-23, 01:36:05,VALID,916.786,VALID,0,VALID,97.2824,VALID,0,VALID,17.9106,VALID,17,VALID,0.622656,
2011-02-23, 01:37:05,VALID,916.757,VALID,0,VALID,97.3053,VALID,0,VALID,17.9092,VALID,18,VALID,0.448828,
2011-02-23, 01:38:05,VALID,916.747,VALID,0,VALID,97.3205,VALID,0,VALID,17.9301,VALID,18,VALID,0.340234,
2011-02-23, 01:39:05,VALID,916.72,VALID,0,VALID,97.2977,VALID,0,VALID,17.9106,VALID,18,VALID,0.370313,
2011-02-23, 01:40:05,VALID,916.696,VALID,0,VALID,97.29,VALID,0,VALID,17.8911,VALID,18,VALID,0.691016,
2011-02-23, 01:41:05,VALID,916.635,VALID,0,VALID,97.2748,VALID,0,VALID,17.8716,VALID,18,VALID,0.51875,
2011-02-23, 01:42:05,VALID,916.658,VALID,0,VALID,97.3281,VALID,0,VALID,17.8313,VALID,18,VALID,0.604688,
2011-02-23, 01:43:05,VALID,916.621,VALID,0,VALID,97.2748,VALID,0,VALID,17.8118,VALID,17,VALID,0.784766,
2011-02-23, 01:44:05,VALID,916.628,VALID,0,VALID,97.3053,VALID,0,VALID,17.7728,VALID,17,VALID,0.830078,
2011-02-23, 01:45:05,VALID,916.639,VALID,0,VALID,97.3205,VALID,0,VALID,17.7728,VALID,67,VALID,1.00469,
2011-02-23, 01:46:05,VALID,916.616,VALID,0,VALID,97.3358,VALID,0,VALID,17.7741,VALID,67,VALID,0.80625,
2011-02-23, 01:47:05,VALID,916.641,VALID,0,VALID,97.3434,VALID,0,VALID,17.7338,VALID,67,VALID,0.681641,
2011-02-23, 01:48:05,VALID,916.629,VALID,0,VALID,97.351,VALID,0,VALID,17.7143,VALID,67,VALID,0.430078,
2011-02-23, 01:49:05,VALID,916.606,VALID,0,VALID,97.3586,VALID,0,VALID,17.6948,VALID,68,VALID,0.537109,
2011-02-23, 01:50:05,VALID,916.563,VALID,0,VALID,97.3358,VALID,0,VALID,17.6559,VALID,67,VALID,0.552344,
2011-02-23, 01:51:05,VALID,916.529,VALID,0,VALID,97.3129,VALID,0,VALID,17.6169,VALID,67,VALID,0.652734,
2011-02-23, 01:52:05,VALID,916.516,VALID,0,VALID,97.3205,VALID,0,VALID,17.5792,VALID,67,VALID,0.655078,
2011-02-23, 01:53:05,VALID,916.507,VALID,0,VALID,97.3815,VALID,0,VALID,17.5792,VALID,67,VALID,1.03555,
2011-02-23, 01:54:05,VALID,916.511,VALID,0,VALID,97.4273,VALID,0,VALID,17.5974,VALID,67,VALID,1.23438,
2011-02-23, 01:55:05,VALID,916.48,VALID,0,VALID,97.4273,VALID,0,VALID,17.6169,VALID,67,VALID,1.14102,
2011-02-23, 01:56:05,VALID,916.49,VALID,0,VALID,97.4349,VALID,0,VALID,17.6754,VALID,67,VALID,1.1918,
2011-02-23, 01:57:05,VALID,916.491,VALID,0,VALID,97.4273,VALID,0,VALID,17.7936,VALID,67,VALID,0.857422,
2011-02-23, 01:58:05,VALID,916.43,VALID,0,VALID,97.4425,VALID,0,VALID,17.7728,VALID,67,VALID,0.519141,
2011-02-23, 01:59:05,VALID,916.434,VALID,0,VALID,97.4273,VALID,0,VALID,17.7533,VALID,67,VALID,0.664453,
2011-02-23, 02:00:05,VALID,916.428,VALID,0,VALID,97.4349,VALID,0,VALID,17.6754,VALID,67,VALID,0.752734,
2011-02-23, 02:01:05,VALID,916.397,VALID,0,VALID,97.4501,VALID,0,VALID,17.7143,VALID,67,VALID,0.973828,
2011-02-23, 02:02:05,VALID,916.369,VALID,0,VALID,97.4425,VALID,0,VALID,17.6948,VALID,67,VALID,0.719922,
2011-02-23, 02:03:05,VALID,916.371,VALID,0,VALID,97.4501,VALID,0,VALID,17.6559,VALID,67,VALID,0.669922,
2011-02-23, 02:04:05,VALID,916.397,VALID,0,VALID,97.4501,VALID,0,VALID,17.6559,VALID,67,VALID,0.777734,
2011-02-23, 02:05:05,VALID,916.389,VALID,0,VALID,97.4501,VALID,0,VALID,17.6364,VALID,67,VALID,0.540234,
2011-02-23, 02:06:05,VALID,916.356,VALID,0,VALID,97.4501,VALID,0,VALID,17.6559,VALID,67,VALID,0.885547,
2011-02-23, 02:07:05,VALID,916.331,VALID,0,VALID,97.473,VALID,0,VALID,17.6559,VALID,67,VALID,0.719141,
2011-02-23, 02:08:05,VALID,916.316,VALID,0,VALID,97.4654,VALID,0,VALID,17.6169,VALID,67,VALID,0.5125,
2011-02-23, 02:09:05,VALID,916.28,VALID,0,VALID,97.4577,VALID,0,VALID,17.6559,VALID,67,VALID,0.936328,
2011-02-23, 02:10:05,VALID,916.319,VALID,0,VALID,97.4806,VALID,0,VALID,17.6754,VALID,67,VALID,0.667969,
2011-02-23, 02:11:05,VALID,916.326,VALID,0,VALID,97.4806,VALID,0,VALID,17.6962,VALID,67,VALID,0.232812,
2011-02-23, 02:12:05,VALID,916.342,VALID,0,VALID,97.473,VALID,0,VALID,17.6754,VALID,67,VALID,0.269531,
2011-02-23, 02:13:05,VALID,916.323,VALID,0,VALID,97.473,VALID,0,VALID,17.6767,VALID,67,VALID,0.256641,
2011-02-23, 02:14:05,VALID,916.368,VALID,0,VALID,97.4882,VALID,0,VALID,17.6767,VALID,67,VALID,0.246875,
2011-02-23, 02:15:05,VALID,916.374,VALID,0,VALID,97.473,VALID,0,VALID,17.6767,VALID,67,VALID,0.288281,
2011-02-23, 02:16:05,VALID,916.337,VALID,0,VALID,97.4806,VALID,0,VALID,17.6559,VALID,67,VALID,0,
2011-02-23, 02:17:05,VALID,916.319,VALID,0,VALID,97.5111,VALID,0,VALID,17.6754,VALID,67,VALID,0,
2011-02-23, 02:18:05,VALID,916.298,VALID,0,VALID,97.4806,VALID,0,VALID,17.6948,VALID,67,VALID,0.310547,
2011-02-23, 02:19:05,VALID,916.281,VALID,0,VALID,97.5035,VALID,0,VALID,17.6767,VALID,67,VALID,0.407031,
2011-02-23, 02:20:05,VALID,916.304,VALID,0,VALID,97.473,VALID,0,VALID,17.5974,VALID,67,VALID,0.480859,
2011-02-23, 02:21:05,VALID,916.341,VALID,0,VALID,97.473,VALID,0,VALID,17.6169,VALID,67,VALID,0.212891,
2011-02-23, 02:22:05,VALID,916.372,VALID,0,VALID,97.5035,VALID,0,VALID,17.6364,VALID,67,VALID,0,
2011-02-23, 02:23:05,VALID,916.393,VALID,0,VALID,97.5035,VALID,0,VALID,17.6962,VALID,67,VALID,0.00585938,
2011-02-23, 02:24:05,VALID,916.386,VALID,0,VALID,97.5187,VALID,0,VALID,17.6559,VALID,67,VALID,0.289844,
2011-02-23, 02:25:05,VALID,916.397,VALID,0,VALID,97.5187,VALID,0,VALID,17.6767,VALID,67,VALID,0.634375,
2011-02-23, 02:26:05,VALID,916.347,VALID,0,VALID,97.5035,VALID,0,VALID,17.6962,VALID,67,VALID,0.767578,
2011-02-23, 02:27:05,VALID,916.339,VALID,0,VALID,97.5264,VALID,0,VALID,17.7338,VALID,67,VALID,0.953125,
2011-02-23, 02:28:05,VALID,916.324,VALID,0,VALID,97.5187,VALID,0,VALID,17.7547,VALID,67,VALID,0.697266,
2011-02-23, 02:29:05,VALID,916.275,VALID,0,VALID,97.5416,VALID,0,VALID,17.7741,VALID,67,VALID,0.787109,
2011-02-23, 02:30:05,VALID,916.244,VALID,0,VALID,97.5187,VALID,0,VALID,17.7741,VALID,67,VALID,0.739844,
2011-02-23, 02:31:05,VALID,916.253,VALID,0,VALID,97.5416,VALID,0,VALID,17.7741,VALID,67,VALID,0.655469,
2011-02-23, 02:32:05,VALID,916.258,VALID,0,VALID,97.5187,VALID,0,VALID,17.7533,VALID,67,VALID,0.410937,
2011-02-23, 02:33:05,VALID,916.258,VALID,0,VALID,97.5187,VALID,0,VALID,17.7741,VALID,68,VALID,0.444141,
2011-02-23, 02:34:05,VALID,916.271,VALID,0,VALID,97.5187,VALID,0,VALID,17.7741,VALID,67,VALID,0.394531,
2011-02-23, 02:35:05,VALID,916.293,VALID,0,VALID,97.5416,VALID,0,VALID,17.7533,VALID,67,VALID,0.567578,
2011-02-23, 02:36:05,VALID,916.327,VALID,0,VALID,97.5264,VALID,0,VALID,17.7728,VALID,67,VALID,0.258984,
2011-02-23, 02:37:05,VALID,916.291,VALID,0,VALID,97.5416,VALID,0,VALID,17.8326,VALID,67,VALID,0.655078,
2011-02-23, 02:38:05,VALID,916.236,VALID,0,VALID,97.5492,VALID,0,VALID,17.8118,VALID,67,VALID,0.726563,
2011-02-23, 02:39:05,VALID,916.236,VALID,0,VALID,97.5264,VALID,0,VALID,17.8521,VALID,67,VALID,0.728516,
2011-02-23, 02:40:05,VALID,916.263,VALID,0,VALID,97.5416,VALID,0,VALID,17.8508,VALID,67,VALID,0.946094,
2011-02-23, 02:41:05,VALID,916.263,VALID,0,VALID,97.5416,VALID,0,VALID,17.8326,VALID,67,VALID,0.905859,
2011-02-23, 02:42:05,VALID,916.245,VALID,0,VALID,97.5416,VALID,0,VALID,17.8508,VALID,67,VALID,1.32031,
2011-02-23, 02:43:05,VALID,916.262,VALID,0,VALID,97.5264,VALID,0,VALID,17.8911,VALID,68,VALID,1.28242,
2011-02-23, 02:44:05,VALID,916.277,VALID,0,VALID,97.5264,VALID,0,VALID,17.9106,VALID,68,VALID,1.31914,
2011-02-23, 02:45:05,VALID,916.327,VALID,0,VALID,97.5416,VALID,0,VALID,17.9106,VALID,68,VALID,1.07266,
2011-02-23, 02:46:05,VALID,916.332,VALID,0,VALID,97.534,VALID,0,VALID,17.8313,VALID,68,VALID,0.723047,
2011-02-23, 02:47:05,VALID,916.354,VALID,0,VALID,97.5187,VALID,0,VALID,17.7923,VALID,67,VALID,0.658203,
2011-02-23, 02:48:05,VALID,916.323,VALID,0,VALID,97.4959,VALID,0,VALID,17.8118,VALID,67,VALID,0.732422,
2011-02-23, 02:49:05,VALID,916.294,VALID,0,VALID,97.5187,VALID,0,VALID,17.8313,VALID,68,VALID,1.06133,
2011-02-23, 02:50:05,VALID,916.293,VALID,0,VALID,97.5111,VALID,0,VALID,17.8508,VALID,68,VALID,0.903125,
2011-02-23, 02:51:05,VALID,916.246,VALID,0,VALID,97.5264,VALID,0,VALID,17.9106,VALID,68,VALID,1.175,
2011-02-23, 02:52:05,VALID,916.196,VALID,0,VALID,97.5187,VALID,0,VALID,17.8702,VALID,67,VALID,1.07148,
2011-02-23, 02:53:05,VALID,916.208,VALID,0,VALID,97.5264,VALID,0,VALID,17.8897,VALID,68,VALID,0.93125,
2011-02-23, 02:54:05,VALID,916.207,VALID,0,VALID,97.5187,VALID,0,VALID,17.8508,VALID,133,VALID,0.967578,
2011-02-23, 02:55:05,VALID,916.222,VALID,0,VALID,97.5187,VALID,0,VALID,17.8508,VALID,141,VALID,0.889844,
2011-02-23, 02:56:05,VALID,916.209,VALID,0,VALID,97.5264,VALID,0,VALID,17.8508,VALID,135,VALID,0.812891,
2011-02-23, 02:57:05,VALID,916.205,VALID,0,VALID,97.5264,VALID,0,VALID,17.8313,VALID,135,VALID,0.694922,
2011-02-23, 02:58:05,VALID,916.187,VALID,0,VALID,97.5187,VALID,0,VALID,17.8118,VALID,135,VALID,0.557031,
2011-02-23, 02:59:05,VALID,916.199,VALID,0,VALID,97.5111,VALID,0,VALID,17.7909,VALID,133,VALID,0.796875,
2011-02-23, 03:00:05,VALID,916.216,VALID,0,VALID,97.5264,VALID,0,VALID,17.8118,VALID,136,VALID,1.02383,
2011-02-23, 03:01:05,VALID,916.246,VALID,0,VALID,97.5187,VALID,0,VALID,17.8313,VALID,149,VALID,0.623828,
2011-02-23, 03:02:05,VALID,916.249,VALID,0,VALID,97.5187,VALID,0,VALID,17.8508,VALID,149,VALID,1.0793,
2011-02-23, 03:03:04,VALID,916.256,VALID,0,VALID,97.534,VALID,0,VALID,17.8313,VALID,149,VALID,1.05,
2011-02-23, 03:04:04,VALID,916.323,VALID,0,VALID,97.534,VALID,0,VALID,17.8313,VALID,149,VALID,0.398047,
2011-02-23, 03:05:04,VALID,916.32,VALID,0,VALID,97.5264,VALID,0,VALID,17.8326,VALID,149,VALID,0.835156,
2011-02-23, 03:06:04,VALID,916.315,VALID,0,VALID,97.5187,VALID,0,VALID,17.8313,VALID,149,VALID,0.799219,
2011-02-23, 03:07:04,VALID,916.335,VALID,0,VALID,97.5187,VALID,0,VALID,17.8313,VALID,149,VALID,0.664063,
2011-02-23, 03:08:04,VALID,916.308,VALID,0,VALID,97.5187,VALID,0,VALID,17.8313,VALID,149,VALID,0.969922,
2011-02-23, 03:09:04,VALID,916.358,VALID,0,VALID,97.534,VALID,0,VALID,17.8118,VALID,146,VALID,0.987891,
2011-02-23, 03:10:04,VALID,916.344,VALID,0,VALID,97.5492,VALID,0,VALID,17.8508,VALID,134,VALID,0.930859,
2011-02-23, 03:11:04,VALID,916.358,VALID,0,VALID,97.5264,VALID,0.107441,VALID,17.8313,VALID,134,VALID,0.971875,
2011-02-23, 03:12:04,VALID,916.35,VALID,0,VALID,97.5264,VALID,0,VALID,17.7923,VALID,134,VALID,0.884766,
2011-02-23, 03:13:04,VALID,916.361,VALID,0,VALID,97.5264,VALID,0,VALID,17.7338,VALID,134,VALID,0.838672,
2011-02-23, 03:14:04,VALID,916.36,VALID,0,VALID,97.5264,VALID,0,VALID,17.7143,VALID,125,VALID,1.12031,
2011-02-23, 03:15:04,VALID,916.35,VALID,0,VALID,97.5264,VALID,0,VALID,17.6754,VALID,123,VALID,0.671875,
2011-02-23, 03:16:04,VALID,916.354,VALID,0,VALID,97.5492,VALID,0,VALID,17.6948,VALID,123,VALID,0.579687,
2011-02-23, 03:17:04,VALID,916.357,VALID,0,VALID,97.534,VALID,0,VALID,17.6948,VALID,123,VALID,0.735937,
2011-02-23, 03:18:04,VALID,916.343,VALID,0,VALID,97.5416,VALID,0,VALID,17.7143,VALID,123,VALID,0.659375,
2011-02-23, 03:19:04,VALID,916.354,VALID,0,VALID,97.5492,VALID,0,VALID,17.7338,VALID,123,VALID,0.788672,
2011-02-23, 03:20:04,VALID,916.34,VALID,0,VALID,97.5645,VALID,0,VALID,17.7741,VALID,122,VALID,1.28672,
2011-02-23, 03:21:04,VALID,916.346,VALID,0,VALID,97.5569,VALID,0,VALID,17.7338,VALID,122,VALID,1.17891,
2011-02-23, 03:22:04,VALID,916.308,VALID,0,VALID,97.5569,VALID,0,VALID,17.7143,VALID,123,VALID,0.823828,
2011-02-23, 03:23:04,VALID,916.305,VALID,0,VALID,97.5721,VALID,0,VALID,17.7352,VALID,126,VALID,1.50391,
2011-02-23, 03:24:04,VALID,916.291,VALID,0,VALID,97.5492,VALID,0,VALID,17.6948,VALID,113,VALID,1.41641,
2011-02-23, 03:25:04,VALID,916.308,VALID,0,VALID,97.5416,VALID,0,VALID,17.6559,VALID,129,VALID,1.03242,
2011-02-23, 03:26:04,VALID,916.287,VALID,0,VALID,97.534,VALID,0,VALID,17.6948,VALID,125,VALID,1.30156,
2011-02-23, 03:27:04,VALID,916.268,VALID,0,VALID,97.5111,VALID,0,VALID,17.6948,VALID,141,VALID,0.894141,
2011-02-23, 03:28:04,VALID,916.298,VALID,0,VALID,97.5187,VALID,0,VALID,17.7157,VALID,124,VALID,1.14961,
2011-02-23, 03:29:04,VALID,916.277,VALID,0,VALID,97.5264,VALID,0,VALID,17.7157,VALID,130,VALID,0.507422,
2011-02-23, 03:30:04,VALID,916.308,VALID,0,VALID,97.5187,VALID,0,VALID,17.6948,VALID,129,VALID,0.980078,
2011-02-23, 03:31:04,VALID,916.323,VALID,0,VALID,97.5187,VALID,0,VALID,17.7352,VALID,130,VALID,0.89375,
2011-02-23, 03:32:04,VALID,916.312,VALID,0,VALID,97.5035,VALID,0,VALID,17.6948,VALID,130,VALID,0.876562,
2011-02-23, 03:33:04,VALID,916.304,VALID,0,VALID,97.4806,VALID,0,VALID,17.6754,VALID,131,VALID,0.973828,
2011-02-23, 03:34:04,VALID,916.317,VALID,0,VALID,97.5035,VALID,0,VALID,17.6767,VALID,131,VALID,0.795703,
2011-02-23, 03:35:04,VALID,916.325,VALID,0,VALID,97.473,VALID,0.107441,VALID,17.6169,VALID,141,VALID,1.0625,
2011-02-23, 03:36:04,VALID,916.279,VALID,0,VALID,97.473,VALID,0,VALID,17.6169,VALID,155,VALID,0.854297,
2011-02-23, 03:37:04,VALID,916.264,VALID,0,VALID,97.4806,VALID,0,VALID,17.6377,VALID,166,VALID,1.53789,
2011-02-23, 03:38:04,VALID,916.217,VALID,0,VALID,97.4959,VALID,0,VALID,17.5987,VALID,160,VALID,1.08438,
2011-02-23, 03:39:04,VALID,916.197,VALID,0,VALID,97.4882,VALID,0,VALID,17.5792,VALID,159,VALID,0.644531,
2011-02-23, 03:40:04,VALID,916.227,VALID,0,VALID,97.473,VALID,0,VALID,17.5792,VALID,133,VALID,1.07461,
2011-02-23, 03:41:04,VALID,916.216,VALID,0,VALID,97.4882,VALID,0,VALID,17.5584,VALID,150,VALID,0.791406,
2011-02-23, 03:42:04,VALID,916.22,VALID,0,VALID,97.4959,VALID,0,VALID,17.5987,VALID,150,VALID,0.649609,
2011-02-23, 03:43:04,VALID,916.245,VALID,0,VALID,97.4882,VALID,0,VALID,17.5974,VALID,128,VALID,0.713672,
2011-02-23, 03:44:04,VALID,916.235,VALID,0,VALID,97.5187,VALID,0,VALID,17.5974,VALID,142,VALID,0.601953,
2011-02-23, 03:45:04,VALID,916.263,VALID,0,VALID,97.5187,VALID,0,VALID,17.6182,VALID,142,VALID,0.803516,